Regional Weather Roundup
Issued by NWS

Home | Current Version | Previous Version | Graphics & Text | Print | Product List | Glossary On
Versions: 1 2 3 4 5 6 7 8 9 10 11 12 13 14 15 16 17 18 19 20 21 22 23 24 25 26 27
000
ASUS45 KBOU 241207
RWRCO

WEATHER ROUNDUP FOR COLORADO
NATIONAL WEATHER SERVICE DENVER/BOULDER CO
600 AM MDT FRI OCT 24 2014

NOTE: "FAIR" INDICATES FEW OR NO CLOUDS BELOW 12000 FEET WITH NO
SIGNIFICANT WEATHER AND/OR OBSTRUCTIONS TO VISIBILITY.

COZ001>005-013-030-031-241300-
...NORTHWEST COLORADO...

CITY           SKY/WX    TMP DP  RH WIND       PRES   REMARKS
CRAIG          CLEAR     29  26  89 CALM      30.28S
HAYDEN         CLEAR     37  28  70 SE13      30.29S
MEEKER         CLEAR     35  31  85 VRB3      30.31R
MOUNT WERNER   NOT AVBL
STEAMBOAT SPGS CLEAR     33  29  85 CALM      30.32R
WALDEN         MOCLDY    41  23  48 SE12      30.32S
$$

COZ006>008-011-241300-
...WEST CENTRAL VALLEYS...

CITY           SKY/WX    TMP DP  RH WIND       PRES   REMARKS
GRAND JUNCTION CLEAR     45  36  70 S3        30.25R
MONTROSE       CLEAR     39  30  70 S10       30.33R
EAGLE          NOT AVBL
RIFLE          PTCLDY    36  33  89 CALM      30.31R
DELTA          CLEAR     41  33  72 CALM      30.31R
NUCLA          CLEAR     43  28  56 E7        30.35R
$$

COZ017>023-064>068-241300-
...SOUTHWEST COLORADO...

CITY           SKY/WX    TMP DP  RH WIND       PRES   REMARKS
DURANGO        PTCLDY    36  33  89 CALM      30.35S
CORTEZ         CLEAR     33  28  81 CALM      30.33R
PAGOSA SPRINGS PTCLDY    36  35  96 CALM      30.40S
TELLURIDE      CLEAR     40  21  47 E9        30.49R
WOLF CREEK PAS PTCLDY    37   9  30 SW7         N/A
$$

COZ009-010-012-014-032>034-037-058>063-241300-
...CENTRAL COLORADO...

CITY           SKY/WX    TMP DP  RH WIND       PRES   REMARKS
ASPEN          CLEAR     34  24  67 CALM      30.37R
BUENA VISTA    PTCLDY    32  25  74 NW3       30.40R
COPPER MTN     CLEAR     41  10  28 SW10      30.59R
BERTHOUD PASS  FAIR      34  32  93 W35G48    30.52S WCI  19
COTTONWOOD PAS PTCLDY    48  14  25 CALM      30.47R
GUNNISON       PTCLDY    27  21  80 CALM      30.49R
KREMMLING      CLEAR     30  27  86 NW3         N/A
LEADVILLE      PTCLDY    31  18  58 NE5       30.47R WCI  26
MONARCH PASS   PTCLDY    34  23  64 W26       30.67S WCI  21
SALIDA         PTCLDY    44  26  49 NW13G20   30.44R
SUNLIGHT       CLEAR     39  27  60 CALM      30.52R
WILKERSON PASS NOT AVBL
$$

COZ069>075-241300-
...SAN LUIS VALLEY/SANGRE DE CRISTO MOUNTAINS...

CITY           SKY/WX    TMP DP  RH WIND       PRES   REMARKS
ALAMOSA        MOCLDY    27  23  85 W3        30.39S
LA VETA PASS   NOT AVBL
SAGUACHE       PTCLDY    37  27  65 N8        30.42R
$$

COZ035-036-038>040-241300-
...NORTHERN COLORADO FRONT RANGE...

CITY           SKY/WX    TMP DP  RH WIND       PRES   REMARKS
DENVER INTL AP CLOUDY    58  26  29 SW12      30.15R
DMNS CITY PARK   N/A     58  27  29 SW6       30.15R
AURORA         MOCLDY    56  26  31 S8        30.18R
FRONT RANGE AP CLOUDY    61  28  29 SW10      30.16R
ERIE MUNI ARPT CLOUDY    57  29  34 CALM      30.13S
BOULDER MUN AP CLOUDY    61  28  29 W6        30.14S
CENTENNIAL     CLOUDY    58  24  27 SW10      30.18R
BROOMFIELD     MOCLDY    61  23  23 SW10      30.17R
FORT COLLINS   MOCLDY    48  34  57 CALM      30.14S
LONGMONT       MOCLDY    47  37  67 CALM      30.15S
$$

COZ041-046-047-076>085-087-088-241300-
...PIKES PEAK/PALMER DIVIDE AND SOUTHERN FOOTHILLS...

CITY           SKY/WX    TMP DP  RH WIND       PRES   REMARKS
COLO. SPRINGS  CLOUDY    47  31  53 N9        30.22S
A. F. ACADEMY  CLOUDY    48  28  45 VRB2      30.24R
ELLICOTT       NOT AVBL
FALCON         CLOUDY    49  21  33 N6        30.26R
FORT CARSON    CLOUDY    46  32  58 NW7       30.18S
LIMON          MOCLDY    44  33  65 N6        30.16S
MONUMENT HILL  CLOUDY    54  19  26 SW13      30.25R
TRINIDAD       PTCLDY    49  33  54 W12       30.21R
$$

COZ042>045-048>051-090-091-241300-
...NORTHEAST COLORADO...

CITY           SKY/WX    TMP DP  RH WIND       PRES   REMARKS
GREELEY ARPT   CLOUDY    45  34  65 W3        30.12S
AKRON          CLOUDY    54  34  46 SW12      30.09S
BURLINGTON     PTCLDY    50  39  66 W9        30.09S
WRAY           CLOUDY    48  38  68 W6        30.05S
STERLING       CLOUDY    46  41  81 S6        30.06S
HOLYOKE        NOT AVBL
FORT MORGAN    CLOUDY    46  36  67 W5        30.11R
$$

COZ086-089-092>099-241300-
...SOUTHEAST COLORADO...

CITY           SKY/WX    TMP DP  RH WIND       PRES   REMARKS
PUEBLO         PTCLDY    41  33  73 CALM      30.14S
LA JUNTA       CLEAR     48  35  60 SW7       30.12S
LAMAR          CLEAR     44  39  82 W7        30.09R
SPRINGFIELD      N/A     47  43  86 W7        30.12R
$$



USA.gov is the U.S. government's official web portal to all federal, state and local government web resources and services.